Flight Information

DEPARTURE
NORTH BEND, OR
Elevation:
17
Runways:
5/23 - 5980x150 - ASPH-G
13/31 - 4470x150 - ASPH-G
Ground:
127.1
Tower:
NORTH BEND TOWER 118.45
DESTINATION
,
Elevation:
TPA:
1000 (est.)


6847.4 NM65° True-18° Var46° HDG

Flight Plan:
(click to file on line)

1. Type
2. Aircraft Identification
3. Aircraft Type / Special Equipment
4. True Airspeed
kts
5. Departure Airport
(ICAO code)
6. Arriving Airport
(ICAO code)
7. Cruising Altitude
ft
8. Alternate Airport
(ICAO code)
9. Route of Flight
10. Remarks


00:00:00 Departure ATIS: Destination ATIS:

Clearance Limit:
Route:
Altitude: Expect in minutes
Frequency:
Transponder: (7500 Hijack / 7600 Lost Comms / 7700 Emergency)


KOTH 190156Z 03005KT 7SM CLR 09/07 A3040 RMK AO2 SLP295 T00890067
Time: 2021-01-19T01:56:00Z
1611024358
Winds: 30 @ 5 kts
Visibility: 7.0 sm
Clouds (AGL): CLR
Temperature: 8.9 C
Dew Point: 6.7 C
Pressure: 30.398623 in Hgbr


Notes:

Data extracted from FAA Digital Chart Supplement. Effective: 0901Z Thursday, Dec 31, 2020 to 0901Z Thursday, Jan 28, 2021
Current ATIS data is provided courtisy of PilotEdge.